Voltar ao catálogo

RESURS O1-N4

AtivoCiênciaSSO
NORAD 25394·PAYLOAD·🇷🇺 Russia

Lançado Jul 10, 1998 de Baikonur Cosmodrome

Loading…

Próximas Passagens (próximas 24 horas)

TLE

AtualizadoSource: Space-Track

Época: Sep 14, 2026, 09:06 UTC

1 25394U 98043A   26257.37959622  .00000082  00000-0  54680-4 0  9999
2 25394  98.9546 232.7076 0000760 185.5300 174.5870 14.25146758465031

Acompanhe RESURS O1-N4 em tempo real com AllMySat

Download on the App Store